TimeCST,TemperatureF,Dew PointF,Humidity,Sea Level PressureIn,VisibilityMPH,Wind Direction,Wind SpeedMPH,Gust SpeedMPH,PrecipitationIn,Events,Conditions,WindDirDegrees,DateUTC
12:15 AM,26.6,26.6,100,30.22,10.0,SSE,6.9,-,N/A,,Overcast,150,2012-11-04 05:15:00
12:35 AM,26.6,26.6,100,30.22,10.0,South,4.6,-,N/A,,Overcast,170,2012-11-04 05:35:00
12:55 AM,26.6,26.6,100,30.21,10.0,SE,6.9,-,N/A,,Overcast,140,2012-11-04 05:55:00
1:15 AM,26.6,26.6,100,30.22,10.0,SSE,5.8,-,N/A,,Overcast,150,2012-11-04 06:15:00
1:35 AM,26.6,26.6,100,30.22,10.0,South,5.8,-,N/A,,Overcast,180,2012-11-04 06:35:00
1:55 AM,26.6,26.6,100,30.21,10.0,South,5.8,-,N/A,,Overcast,180,2012-11-04 06:55:00
1:15 AM,26.6,26.6,100,30.21,10.0,South,5.8,-,N/A,,Overcast,180,2012-11-04 07:15:00
1:35 AM,26.6,26.6,100,30.20,10.0,SSE,8.1,-,N/A,,Overcast,160,2012-11-04 07:35:00
1:55 AM,26.6,26.6,100,30.20,10.0,South,10.4,-,N/A,,Overcast,180,2012-11-04 07:55:00
2:15 AM,26.6,26.6,100,30.20,10.0,South,5.8,-,N/A,,Overcast,190,2012-11-04 08:15:00
2:35 AM,26.6,26.6,100,30.21,10.0,South,8.1,-,N/A,,Overcast,180,2012-11-04 08:35:00
2:55 AM,26.6,26.6,100,30.21,10.0,South,8.1,-,N/A,,Overcast,190,2012-11-04 08:55:00
3:15 AM,26.6,26.6,100,30.19,10.0,South,8.1,-,N/A,,Overcast,190,2012-11-04 09:15:00
3:35 AM,26.6,26.6,100,30.19,10.0,South,5.8,-,N/A,,Overcast,190,2012-11-04 09:35:00
3:55 AM,26.6,26.6,100,30.19,10.0,SSW,9.2,-,N/A,,Overcast,200,2012-11-04 09:55:00
4:15 AM,24.8,24.8,100,30.18,10.0,South,5.8,-,N/A,,Overcast,170,2012-11-04 10:15:00
4:35 AM,24.8,24.8,100,30.18,10.0,South,6.9,-,N/A,,Overcast,170,2012-11-04 10:35:00
4:55 AM,24.8,24.8,100,30.17,10.0,South,9.2,-,N/A,,Overcast,180,2012-11-04 10:55:00
5:15 AM,24.8,24.8,100,30.17,10.0,South,9.2,-,N/A,,Overcast,180,2012-11-04 11:15:00
5:35 AM,24.8,24.8,100,30.17,10.0,South,8.1,-,N/A,,Overcast,170,2012-11-04 11:35:00
5:55 AM,24.8,24.8,100,30.17,10.0,South,9.2,-,N/A,,Overcast,190,2012-11-04 11:55:00
6:15 AM,24.8,24.8,100,30.16,10.0,SSE,9.2,-,N/A,,Overcast,160,2012-11-04 12:15:00
6:35 AM,24.8,24.8,100,30.16,10.0,South,8.1,-,N/A,,Overcast,180,2012-11-04 12:35:00
6:55 AM,24.8,24.8,100,30.16,10.0,South,5.8,-,N/A,,Overcast,180,2012-11-04 12:55:00
7:15 AM,24.8,24.8,100,30.16,10.0,South,8.1,-,N/A,,Overcast,180,2012-11-04 13:15:00
7:35 AM,24.8,24.8,100,30.15,10.0,South,8.1,-,N/A,,Overcast,180,2012-11-04 13:35:00
7:55 AM,24.8,24.8,100,30.16,10.0,South,6.9,-,N/A,,Overcast,190,2012-11-04 13:55:00
8:15 AM,24.8,24.8,100,30.16,10.0,South,9.2,-,N/A,,Overcast,190,2012-11-04 14:15:00
8:35 AM,24.8,24.8,100,30.15,10.0,South,6.9,-,N/A,,Overcast,170,2012-11-04 14:35:00
8:55 AM,24.8,24.8,100,30.16,10.0,South,8.1,-,N/A,,Overcast,180,2012-11-04 14:55:00
9:15 AM,24.8,24.8,100,30.15,10.0,South,9.2,-,N/A,,Overcast,190,2012-11-04 15:15:00
9:35 AM,24.8,24.8,100,30.14,9.0,South,8.1,-,N/A,,Overcast,190,2012-11-04 15:35:00
9:55 AM,24.8,24.8,100,30.14,10.0,South,9.2,-,N/A,,Overcast,190,2012-11-04 15:55:00
10:15 AM,24.8,24.8,100,30.14,10.0,South,10.4,-,N/A,,Overcast,190,2012-11-04 16:15:00
10:35 AM,26.6,26.6,100,30.14,9.0,SSW,9.2,-,N/A,,Overcast,200,2012-11-04 16:35:00
10:55 AM,26.6,26.6,100,30.14,10.0,South,9.2,-,N/A,,Overcast,180,2012-11-04 16:55:00
11:15 AM,26.6,26.6,100,30.14,10.0,South,10.4,-,N/A,,Overcast,180,2012-11-04 17:15:00
11:35 AM,26.6,26.6,100,30.14,10.0,South,9.2,-,N/A,,Overcast,180,2012-11-04 17:35:00
11:55 AM,26.6,26.6,100,30.14,10.0,South,8.1,-,N/A,,Overcast,170,2012-11-04 17:55:00
12:15 PM,26.6,26.6,100,30.14,10.0,SSW,6.9,-,N/A,,Overcast,200,2012-11-04 18:15:00
12:35 PM,28.4,28.4,100,30.14,10.0,SSW,6.9,-,N/A,,Overcast,200,2012-11-04 18:35:00
12:55 PM,28.4,26.6,93,30.14,10.0,South,9.2,-,N/A,,Overcast,190,2012-11-04 18:55:00
1:15 PM,28.4,28.4,100,30.14,4.0,SSE,9.2,-,N/A,,Overcast,150,2012-11-04 19:15:00
1:35 PM,28.4,28.4,100,30.14,2.0,SSE,10.4,-,N/A,Snow,Light Snow,150,2012-11-04 19:35:00
1:55 PM,28.4,28.4,100,30.14,3.0,SSE,8.1,-,N/A,Snow,Light Snow,150,2012-11-04 19:55:00
2:15 PM,28.4,28.4,100,30.14,4.0,SSE,8.1,-,N/A,Snow,Light Snow,160,2012-11-04 20:15:00
2:35 PM,28.4,28.4,100,30.15,5.0,SSE,5.8,-,N/A,Snow,Light Snow,160,2012-11-04 20:35:00
2:55 PM,28.4,28.4,100,30.15,6.0,SSE,8.1,-,N/A,Snow,Light Snow,150,2012-11-04 20:55:00
3:15 PM,28.4,28.4,100,30.15,9.0,SSE,5.8,-,N/A,Rain,Freezing Rain,150,2012-11-04 21:15:00
3:35 PM,28.4,28.4,100,30.15,10.0,SSE,6.9,-,N/A,,Overcast,150,2012-11-04 21:35:00
3:55 PM,28.4,28.4,100,30.15,10.0,SE,8.1,-,N/A,,Overcast,140,2012-11-04 21:55:00
4:15 PM,28.4,28.4,100,30.15,9.0,SE,6.9,-,N/A,,Overcast,140,2012-11-04 22:15:00
4:35 PM,28.4,28.4,100,30.16,8.0,SE,5.8,-,N/A,,Overcast,140,2012-11-04 22:35:00
4:55 PM,28.4,28.4,100,30.17,8.0,ESE,4.6,-,N/A,,Overcast,120,2012-11-04 22:55:00
5:15 PM,28.4,28.4,100,30.17,10.0,Calm,Calm,-,N/A,,Overcast,0,2012-11-04 23:15:00
5:35 PM,28.4,28.4,100,30.18,9.0,SE,3.5,-,N/A,,Overcast,130,2012-11-04 23:35:00
5:55 PM,28.4,28.4,100,30.18,10.0,SE,3.5,-,N/A,,Overcast,130,2012-11-04 23:55:00
6:15 PM,28.4,28.4,100,30.18,10.0,SSE,3.5,-,N/A,,Overcast,160,2012-11-05 00:15:00
6:35 PM,28.4,28.4,100,30.19,10.0,South,3.5,-,N/A,,Overcast,180,2012-11-05 00:35:00
6:55 PM,28.4,28.4,100,30.20,10.0,South,3.5,-,N/A,,Overcast,190,2012-11-05 00:55:00
7:15 PM,28.4,28.4,100,30.21,10.0,SW,3.5,-,N/A,,Mostly Cloudy,230,2012-11-05 01:15:00
7:35 PM,28.4,28.4,100,30.21,10.0,Calm,Calm,-,N/A,,Overcast,0,2012-11-05 01:35:00
7:55 PM,28.4,28.4,100,30.21,7.0,Calm,Calm,-,N/A,,Mostly Cloudy,0,2012-11-05 01:55:00
8:15 PM,28.4,28.4,100,30.20,8.0,Calm,Calm,-,N/A,,Mostly Cloudy,0,2012-11-05 02:15:00
8:35 PM,28.4,28.4,100,30.21,4.0,Calm,Calm,-,N/A,,Mostly Cloudy,0,2012-11-05 02:35:00
8:55 PM,28.4,28.4,100,30.22,4.0,WSW,3.5,-,N/A,,Mostly Cloudy,250,2012-11-05 02:55:00
9:15 PM,28.4,28.4,100,30.21,5.0,SSE,3.5,-,N/A,,Mostly Cloudy,160,2012-11-05 03:15:00
9:35 PM,28.4,28.4,100,30.22,7.0,Calm,Calm,-,N/A,,Overcast,0,2012-11-05 03:35:00
9:55 PM,28.4,28.4,100,30.21,6.0,Calm,Calm,-,N/A,,Overcast,0,2012-11-05 03:55:00
10:15 PM,28.4,28.4,100,30.22,6.0,Calm,Calm,-,N/A,,Overcast,0,2012-11-05 04:15:00
10:35 PM,28.4,28.4,100,30.21,8.0,Calm,Calm,-,N/A,,Overcast,0,2012-11-05 04:35:00